Temp
83 83 81 73 61 61 57 62 71 67 69 73 75 72 68 67 66 58 70 74 76 75 78 80 83 83 83 83 83 83 83 83 83 83 83 83 84 84 84 84 84 84 84 84 84 84 84 84 84
83 81 76 69 56 52 56 70 65 69 72 74 73 72 71 63 70 67 70 75 77 77 78 79 82 83 83 83 83 83 83 83 83 83 83 83 84 84 84 84 84 84 84 84 84 84 84 84 83
83 84 68 62 60 53 56 68 69 72 74 75 73 77 73 67 72 71 76 78 78 78 79 80 82 83 83 83 83 83 83 84 83 83 83 84 84 84 84 84 84 84 84 84 84 84 84 84 84
80 73 72 61 60 67 68 70 74 73 76 79 75 65 73 78 73 76 80 80 79 80 80 82 83 84 84 83 83 84 84 84 84 83 84 84 84 84 84 84 84 84 84 84 84 84 84 84 84
76 70 61 62 65 71 74 76 76 73 75 75 75 65 66 75 81 81 80 81 79 79 80 81 83 84 84 84 84 84 84 84 83 83 84 84 84 84 84 84 84 84 84 84 84 84 84 83 83
69 69 61 59 66 73 75 78 78 76 74 74 71 68 65 76 78 80 80 80 81 79 81 81 83 83 84 84 83 84 84 84 84 84 84 84 84 84 84 84 84 84 84 85 84 84 84 83 83
69 65 64 66 67 70 74 76 76 75 74 73 75 66 69 74 79 81 80 81 81 80 80 81 81 83 84 84 84 84 84 84 84 84 84 83 84 84 84 84 84 84 84 85 84 84 83 83 82
71 68 67 69 67 69 78 77 83 78 76 82 81 66 65 76 82 81 80 80 78 79 79 78 78 79 78 80 84 84 84 84 84 84 84 84 84 84 84 83 84 85 85 85 84 84 83 83 83
77 64 63 70 73 75 79 75 84 87 78 81 81 76 80 82 83 79 78 77 76 77 77 78 78 76 76 77 81 83 84 84 84 83 84 81 74 77 79 81 83 84 84 84 84 84 83 83 83
71 64 72 81 81 79 79 81 80 79 77 79 78 80 82 82 80 77 75 74 74 75 76 78 77 76 76 82 77 75 78 77 76 76 76 73 75 74 79 80 83 84 84 84 84 84 84 83 76
77 71 81 82 84 86 82 82 86 77 73 78 72 75 79 80 79 77 77 77 76 78 78 78 78 78 76 78 74 74 74 74 74 75 74 72 74 73 75 74 75 74 81 75 79 79 76 74 74
64 77 80 81 83 83 81 85 83 81 80 84 79 79 79 78 78 78 77 78 78 78 79 77 80 76 78 74 75 74 74 75 74 75 75 72 73 72 75 73 72 74 72 72 73 73 75 76 75
75 77 80 82 85 82 87 82 82 83 86 84 81 80 78 78 79 81 81 81 80 79 80 76 77 76 75 74 74 75 75 76 76 76 75 73 72 72 74 74 72 73 74 72 71 72 72 73 74
80 77 78 80 82 80 82 81 84 82 85 81 80 78 79 79 80 82 81 80 80 81 79 79 77 75 75 76 75 76 76 75 76 75 78 75 73 72 72 72 71 72 72 73 72 71 72 71 72
81 76 77 78 78 79 79 75 78 82 83 79 79 79 80 81 83 82 83 82 82 82 81 79 79 74 76 76 76 77 74 77 74 75 75 73 72 71 72 71 71 71 72 72 72 72 71 71 72
77 72 64 76 78 81 76 61 73 82 80 78 79 80 81 81 83 84 85 84 84 84 80 81 85 79 78 77 76 77 76 75 74 74 73 74 74 73 72 71 71 72 72 72 71 71 70 70 70
65 60 65 73 80 79 75 63 68 80 81 78 78 79 80 81 83 86 87 87 86 84 81 82 83 80 79 78 76 74 73 73 73 73 73 74 75 75 73 72 73 73 72 71 71 71 71 70 70
61 61 68 70 77 80 74 68 72 79 81 79 79 80 80 81 83 87 88 88 87 85 83 83 83 79 79 75 73 72 72 72 73 74 72 74 75 76 73 73 73 73 72 71 72 71 71 71 71
71 69 72 76 83 77 74 74 74 81 81 79 78 79 80 82 86 87 87 88 87 83 83 83 81 79 78 74 73 71 71 70 71 72 74 74 75 76 73 73 73 72 72 73 72 72 71 71 72
70 72 71 76 85 79 76 73 80 80 80 81 79 79 81 82 81 84 86 86 85 81 76 78 81 78 79 79 75 73 72 72 73 74 74 75 76 76 74 73 73 73 72 73 72 72 70 70 70
67 68 73 74 78 82 75 69 73 77 78 83 83 84 84 82 82 83 85 83 84 81 81 78 79 79 79 79 74 71 71 73 72 73 73 75 76 76 76 74 73 73 72 71 72 72 71 69 70
60 78 80 79 71 62 75 57 65 68 70 75 80 80 84 84 85 85 85 80 84 82 82 80 79 79 78 75 76 71 69 70 71 72 74 73 77 76 77 75 74 73 72 72 72 73 71 70 67
72 80 79 77 69 65 65 58 61 66 66 70 77 81 84 85 85 84 85 85 85 84 82 81 79 79 79 77 77 74 71 72 72 72 70 71 73 76 76 76 74 74 72 72 72 72 70 69 68
81 76 72 66 61 56 64 61 58 61 70 76 78 79 81 84 86 85 88 86 84 85 84 82 79 78 78 77 76 75 73 72 71 71 71 70 71 73 74 76 74 73 72 72 71 70 69 67 66
72 59 51 52 51 53 58 58 65 74 77 80 81 82 81 79 86 84 85 82 83 82 83 82 80 78 78 78 77 76 74 73 72 73 72 69 70 71 73 74 72 72 72 71 70 69 67 66 64
65 61 52 45 47 53 56 55 67 76 80 83 84 79 81 81 85 85 85 84 83 83 83 81 78 79 79 77 77 77 74 75 75 75 74 73 72 73 73 73 73 72 72 71 69 67 66 65 63
64 60 63 54 45 51 54 64 74 75 74 76 78 79 79 82 85 86 86 87 83 82 83 82 79 78 79 79 78 78 77 75 75 75 73 74 72 74 73 73 72 72 71 70 67 66 64 63 61
65 69 58 52 46 43 53 54 59 67 73 76 78 78 79 81 85 83 86 87 85 84 84 83 81 80 79 80 79 79 79 77 74 75 73 72 73 74 72 72 71 70 69 68 66 64 62 62 59
66 67 59 56 51 47 46 55 64 71 74 75 76 79 79 82 85 84 87 88 87 85 85 83 81 81 80 80 80 80 78 78 75 77 74 73 73 74 73 71 69 69 68 67 65 63 62 61 60
66 61 56 53 53 50 50 55 76 77 76 78 77 83 84 88 90 87 87 88 87 84 85 83 82 81 81 81 80 80 81 79 77 77 75 73 74 74 72 70 69 68 67 65 64 63 62 60 59
MSLP
1010.50 1010.67 1011.03 1011.10 1011.51 1010.77 1010.60 1010.62 1010.07 1010.12 1010.16 1010.18 1010.40 1010.80 1011.61 1012.26 1012.64 1013.97 1014.02 1014.09 1014.49 1014.64 1014.47 1014.48 1014.57 1014.87 1015.12 1015.22 1015.50 1015.61 1015.97 1016.22 1016.53 1016.62 1016.62 1016.75 1016.78 1016.97 1017.15 1017.25 1017.03 1016.93 1016.96 1017.04 1017.09 1017.09 1017.18 1017.21 1017.42
1010.05 1010.63 1010.86 1010.58 1011.06 1011.03 1010.60 1010.17 1010.09 1009.72 1009.85 1010.17 1010.51 1010.75 1011.25 1012.37 1012.65 1013.28 1013.79 1013.94 1014.12 1014.43 1014.52 1014.63 1014.74 1015.06 1015.34 1015.51 1015.71 1015.82 1016.13 1016.24 1016.54 1016.71 1016.73 1016.81 1016.92 1017.17 1017.34 1017.41 1017.13 1017.12 1017.19 1017.19 1017.26 1017.27 1017.29 1017.38 1017.49
1010.07 1010.12 1010.80 1010.17 1010.28 1010.56 1010.22 1009.89 1009.54 1009.58 1009.89 1009.89 1010.30 1010.60 1011.34 1012.06 1012.54 1012.89 1013.08 1013.74 1014.13 1014.42 1014.61 1014.77 1014.76 1015.08 1015.51 1015.77 1015.76 1015.87 1016.06 1016.35 1016.46 1016.69 1016.77 1017.01 1017.09 1017.17 1017.33 1017.48 1017.20 1017.25 1017.33 1017.40 1017.43 1017.42 1017.41 1017.54 1017.72
1010.32 1010.68 1010.51 1010.22 1009.97 1009.66 1009.51 1009.54 1009.21 1009.55 1009.72 1009.83 1010.55 1011.54 1012.04 1012.21 1012.37 1012.64 1012.96 1013.60 1014.10 1014.33 1014.56 1014.88 1015.00 1015.08 1015.44 1015.83 1016.00 1015.87 1016.09 1016.38 1016.35 1016.61 1016.67 1016.99 1017.10 1017.27 1017.35 1017.49 1017.37 1017.42 1017.50 1017.59 1017.55 1017.52 1017.58 1017.64 1017.84
1010.46 1010.55 1010.20 1009.93 1009.49 1009.22 1008.73 1008.89 1009.26 1009.08 1009.32 1009.81 1010.20 1011.68 1012.73 1013.05 1012.66 1012.79 1013.34 1013.79 1014.12 1014.59 1014.81 1015.12 1015.22 1015.36 1015.60 1015.73 1015.96 1015.99 1016.00 1016.30 1016.52 1016.71 1016.73 1016.94 1017.05 1017.27 1017.37 1017.50 1017.52 1017.57 1017.68 1017.75 1017.84 1017.85 1017.82 1017.84 1017.92
1010.15 1009.91 1009.82 1009.33 1009.03 1008.85 1008.53 1008.61 1008.92 1009.03 1009.55 1010.14 1010.64 1011.65 1013.07 1012.97 1012.89 1012.97 1013.41 1013.73 1013.91 1014.45 1014.70 1015.11 1015.44 1015.56 1015.60 1015.71 1016.02 1016.02 1016.11 1016.38 1016.60 1016.70 1016.78 1016.92 1017.10 1017.27 1017.41 1017.51 1017.62 1017.69 1017.85 1017.81 1017.93 1018.09 1018.14 1018.13 1018.15
1009.53 1009.60 1009.09 1008.63 1008.43 1008.50 1007.94 1008.39 1008.58 1008.52 1009.15 1010.02 1010.38 1011.51 1012.59 1012.81 1012.85 1012.97 1013.56 1013.91 1014.15 1014.41 1014.67 1014.99 1015.31 1015.48 1015.63 1015.77 1015.97 1015.94 1016.20 1016.44 1016.61 1016.81 1016.76 1016.87 1017.09 1017.24 1017.54 1017.65 1017.73 1017.78 1017.79 1017.93 1018.00 1018.23 1018.28 1018.29 1018.38
1009.03 1009.30 1008.65 1008.01 1007.77 1007.42 1007.39 1007.85 1007.95 1008.23 1008.70 1009.70 1010.05 1010.81 1011.74 1011.85 1012.19 1012.85 1013.53 1014.01 1014.40 1014.72 1014.82 1015.07 1015.33 1015.39 1015.73 1015.74 1016.03 1015.97 1016.21 1016.48 1016.57 1016.49 1016.41 1016.85 1017.05 1017.31 1017.53 1017.65 1017.77 1017.81 1017.82 1017.98 1018.16 1018.24 1018.27 1018.38 1018.52
1009.01 1008.93 1007.98 1006.91 1006.48 1006.46 1006.79 1007.21 1007.40 1007.78 1008.31 1008.79 1009.41 1009.55 1010.21 1010.96 1012.04 1012.93 1013.52 1014.24 1014.60 1014.89 1015.04 1015.21 1015.30 1015.67 1015.68 1015.85 1015.89 1016.04 1016.26 1016.36 1016.33 1016.25 1016.55 1016.98 1017.15 1017.42 1017.65 1017.64 1017.69 1017.83 1017.95 1018.01 1018.23 1018.35 1018.36 1018.45 1018.52
1009.39 1008.55 1006.64 1005.41 1005.19 1005.54 1006.11 1006.06 1006.90 1007.50 1008.33 1008.48 1009.38 1009.78 1010.52 1011.11 1011.92 1012.64 1013.29 1013.90 1014.38 1014.80 1015.03 1015.12 1015.21 1015.39 1015.62 1015.59 1015.89 1016.29 1016.32 1016.29 1016.24 1016.45 1016.71 1016.77 1016.92 1017.48 1017.63 1017.61 1017.73 1017.93 1017.93 1017.94 1018.09 1018.35 1018.42 1018.39 1018.67
1008.66 1008.04 1006.24 1005.61 1004.98 1004.94 1005.44 1005.68 1006.02 1006.95 1007.87 1007.76 1008.82 1009.87 1010.59 1011.19 1011.80 1012.55 1013.11 1013.38 1013.76 1014.02 1014.55 1014.76 1014.97 1015.08 1015.38 1015.50 1015.93 1016.36 1016.30 1016.41 1016.35 1016.35 1016.63 1016.96 1017.16 1017.50 1017.56 1017.70 1017.84 1018.16 1018.05 1018.09 1017.93 1018.13 1018.38 1018.60 1018.72
1009.58 1007.94 1006.37 1005.84 1005.33 1005.29 1005.12 1005.09 1005.37 1005.81 1005.98 1006.96 1008.11 1008.87 1010.12 1010.95 1011.40 1011.96 1012.75 1013.22 1013.40 1013.88 1014.19 1014.48 1014.68 1015.03 1015.13 1015.55 1015.67 1015.97 1016.22 1016.18 1016.26 1016.21 1016.54 1017.09 1017.18 1017.46 1017.32 1017.60 1017.89 1017.96 1018.24 1018.28 1018.15 1018.26 1018.36 1018.49 1018.62
1006.97 1006.84 1005.83 1005.93 1005.18 1005.35 1004.83 1004.69 1004.67 1005.28 1005.47 1007.02 1008.45 1009.37 1010.08 1010.79 1011.25 1011.83 1012.33 1012.67 1013.09 1013.62 1013.73 1014.17 1014.46 1014.86 1014.84 1015.30 1015.42 1015.55 1015.81 1015.84 1015.79 1016.04 1016.27 1016.73 1017.01 1017.17 1017.14 1017.43 1017.81 1017.79 1017.85 1018.19 1018.31 1018.25 1018.38 1018.41 1018.63
1007.00 1006.61 1006.85 1006.20 1005.30 1005.34 1005.43 1004.83 1004.60 1005.34 1005.78 1007.09 1008.19 1009.30 1009.90 1010.41 1010.75 1011.25 1011.82 1012.15 1012.60 1012.96 1013.32 1013.62 1014.03 1014.22 1014.47 1014.99 1015.06 1015.21 1015.33 1015.37 1015.54 1015.69 1015.83 1016.47 1016.64 1016.86 1017.17 1017.34 1017.62 1017.56 1017.71 1017.84 1018.03 1018.15 1018.12 1018.41 1018.56
1006.83 1007.17 1007.17 1005.94 1005.79 1005.48 1005.75 1005.65 1005.22 1005.75 1006.01 1006.98 1007.86 1008.75 1009.47 1009.86 1010.18 1010.42 1010.73 1011.28 1011.70 1012.12 1012.65 1013.03 1013.43 1013.63 1013.98 1014.39 1014.51 1014.76 1015.15 1015.08 1015.32 1015.54 1015.76 1016.25 1016.44 1016.67 1016.89 1017.22 1017.43 1017.38 1017.56 1017.75 1017.94 1018.05 1018.18 1018.35 1018.43
1006.77 1007.19 1007.17 1006.10 1005.92 1005.20 1006.12 1007.77 1008.10 1006.56 1006.51 1007.08 1007.49 1008.28 1008.63 1009.01 1009.32 1009.75 1010.02 1010.48 1011.08 1011.81 1012.21 1012.50 1012.97 1013.57 1013.82 1014.15 1014.35 1014.59 1014.98 1014.93 1015.25 1015.51 1015.84 1016.02 1016.09 1016.36 1016.62 1016.96 1017.20 1017.32 1017.45 1017.82 1018.08 1018.20 1018.29 1018.38 1018.35
1007.71 1007.54 1006.92 1005.75 1005.58 1005.59 1006.32 1009.01 1007.53 1007.46 1006.96 1006.98 1007.43 1007.71 1007.91 1008.31 1008.55 1008.86 1009.28 1009.72 1010.41 1011.01 1011.73 1012.29 1012.66 1013.08 1013.64 1014.14 1014.19 1014.67 1014.90 1014.99 1015.38 1015.41 1015.62 1015.81 1015.91 1016.01 1016.31 1016.55 1016.83 1017.04 1017.41 1017.72 1018.04 1018.10 1018.09 1018.20 1018.06
1007.17 1007.45 1006.26 1005.30 1004.59 1004.56 1005.97 1007.44 1006.60 1006.39 1006.66 1006.63 1006.79 1007.10 1007.38 1007.51 1007.57 1007.79 1008.36 1008.95 1009.68 1010.26 1011.11 1011.67 1012.25 1012.91 1013.65 1014.11 1014.48 1014.93 1015.08 1014.93 1015.09 1015.22 1015.63 1015.66 1015.66 1015.80 1016.10 1016.39 1016.64 1016.90 1017.40 1017.82 1017.90 1017.94 1018.02 1018.00 1017.97
1005.39 1005.71 1005.08 1004.13 1003.42 1003.75 1004.14 1004.87 1005.76 1005.69 1006.08 1006.29 1006.17 1006.08 1006.27 1006.55 1006.51 1007.01 1007.61 1008.33 1009.19 1010.00 1010.83 1011.29 1012.01 1012.75 1013.53 1014.20 1014.63 1014.96 1015.22 1015.40 1015.54 1015.55 1015.52 1015.62 1015.60 1015.76 1016.06 1016.33 1016.59 1016.90 1017.27 1017.47 1017.68 1017.77 1017.90 1017.94 1017.90
1005.00 1004.92 1004.13 1003.58 1002.79 1002.64 1003.60 1004.26 1004.41 1004.46 1004.35 1004.67 1004.62 1005.03 1005.42 1005.67 1006.11 1006.63 1007.23 1007.90 1008.65 1009.50 1010.40 1011.20 1011.57 1012.30 1013.04 1013.43 1013.91 1014.31 1014.71 1015.00 1015.16 1015.39 1015.55 1015.60 1015.42 1015.59 1015.90 1016.11 1016.63 1016.87 1017.05 1017.30 1017.40 1017.53 1017.86 1017.87 1017.84
1004.36 1004.13 1003.73 1002.92 1002.60 1002.21 1002.99 1004.41 1003.84 1003.81 1003.99 1004.46 1004.08 1004.29 1005.01 1005.01 1005.26 1005.86 1006.77 1007.48 1008.24 1009.05 1009.73 1010.65 1011.23 1011.81 1012.57 1012.97 1013.79 1014.34 1014.65 1014.95 1015.34 1015.42 1015.90 1015.46 1015.34 1015.47 1015.62 1015.85 1016.19 1016.64 1016.93 1017.03 1017.14 1017.29 1017.62 1017.86 1017.76
1003.55 1002.70 1002.93 1002.82 1003.16 1003.35 1002.93 1004.46 1004.30 1004.05 1004.46 1004.27 1003.97 1003.98 1004.09 1004.46 1004.64 1004.99 1005.90 1007.02 1007.62 1008.40 1009.20 1009.98 1010.72 1011.40 1012.13 1012.69 1013.33 1013.99 1014.27 1014.80 1014.89 1015.05 1015.47 1015.39 1015.14 1015.25 1015.37 1015.55 1015.91 1016.28 1016.66 1016.81 1016.94 1017.20 1017.38 1017.63 1017.97
1002.44 1001.85 1002.25 1002.86 1003.67 1003.56 1003.66 1004.54 1004.20 1004.42 1004.56 1003.70 1002.98 1002.94 1002.88 1002.69 1003.45 1004.42 1004.92 1005.70 1006.56 1007.74 1008.70 1009.59 1010.31 1011.07 1011.71 1012.34 1012.74 1013.46 1013.91 1014.22 1014.34 1014.72 1015.34 1015.26 1015.17 1014.94 1015.19 1015.42 1015.78 1016.15 1016.36 1016.50 1016.71 1017.07 1017.34 1017.59 1017.95
1001.17 1001.63 1002.23 1002.97 1004.00 1004.63 1004.09 1004.65 1004.15 1003.76 1002.39 1002.09 1002.01 1002.14 1002.38 1002.71 1003.26 1003.55 1004.01 1005.40 1006.18 1007.21 1008.33 1009.21 1009.96 1010.67 1011.28 1011.90 1012.38 1012.95 1013.36 1013.90 1014.37 1014.64 1014.94 1015.11 1015.09 1015.24 1015.23 1015.37 1015.68 1015.87 1016.29 1016.54 1016.84 1017.17 1017.45 1017.72 1017.97
1001.24 1003.00 1004.07 1005.10 1005.62 1005.95 1004.54 1004.44 1002.27 1000.88 1000.50 1000.74 1000.95 1000.73 1001.59 1002.24 1002.45 1003.14 1004.12 1004.92 1005.90 1006.66 1007.66 1008.65 1009.45 1010.20 1010.83 1011.42 1011.89 1012.39 1012.83 1013.33 1013.78 1014.25 1014.57 1014.94 1015.12 1015.22 1015.34 1015.52 1015.84 1016.07 1016.13 1016.43 1016.83 1017.34 1017.57 1017.79 1018.16
1001.75 1003.28 1004.97 1006.03 1007.01 1006.34 1004.57 1003.86 1001.34 1000.03 999.75 1000.09 1000.34 1000.83 1001.21 1001.80 1002.45 1002.42 1003.36 1004.17 1005.13 1006.07 1006.92 1007.96 1008.98 1009.69 1010.34 1010.90 1011.31 1011.75 1012.18 1012.78 1013.21 1013.63 1014.01 1014.35 1014.63 1014.80 1015.10 1015.45 1015.50 1015.84 1016.16 1016.51 1016.83 1017.33 1017.74 1018.03 1018.38
1001.76 1003.05 1003.94 1005.74 1007.08 1006.85 1005.41 1003.68 1001.42 1000.36 1000.30 1000.49 1000.47 1001.04 1001.65 1001.62 1001.96 1002.26 1002.53 1003.49 1004.62 1005.59 1006.24 1007.02 1008.12 1008.95 1009.65 1010.18 1010.74 1011.14 1011.60 1012.20 1012.69 1013.07 1013.41 1013.80 1014.17 1014.70 1015.05 1015.33 1015.57 1015.86 1016.02 1016.46 1017.07 1017.51 1017.98 1018.23 1018.49
1001.84 1002.61 1004.32 1006.32 1007.50 1007.63 1006.05 1004.52 1002.62 1001.56 1000.88 1000.74 1000.78 1000.49 1001.25 1001.21 1001.51 1002.16 1002.50 1003.00 1003.92 1004.61 1005.36 1006.32 1007.11 1007.81 1008.55 1009.36 1009.92 1010.33 1010.84 1011.45 1012.05 1012.56 1012.99 1013.36 1013.82 1014.38 1014.86 1015.24 1015.56 1016.07 1016.54 1016.92 1017.33 1017.80 1018.16 1018.40 1018.70
1003.35 1003.77 1004.82 1006.44 1007.27 1007.66 1006.77 1005.58 1003.08 1001.78 1000.65 1000.74 1000.61 1000.90 1000.61 1000.63 1000.27 1001.03 1001.64 1002.47 1003.04 1004.11 1004.75 1005.54 1006.48 1007.34 1008.20 1008.69 1009.21 1009.74 1010.29 1010.81 1011.48 1011.99 1012.34 1012.87 1013.43 1013.95 1014.57 1015.10 1015.68 1016.08 1016.42 1016.78 1017.26 1017.87 1018.28 1018.58 1018.88
1004.55 1005.07 1005.86 1007.08 1007.65 1007.58 1006.77 1004.90 1003.23 1001.65 1000.73 1000.50 1000.69 1000.21 999.95 998.92 998.79 1000.31 1000.94 1001.51 1002.73 1003.43 1004.17 1004.74 1005.84 1006.64 1007.13 1007.59 1008.28 1008.88 1009.49 1010.24 1010.84 1011.33 1011.91 1012.46 1013.19 1013.69 1014.25 1014.94 1015.48 1016.00 1016.40 1016.85 1017.34 1017.89 1018.32 1018.62 1019.06
Wind_Speed
11 7 2 2 3 4 2 5 7 11 6 1 6 6 7 4 2 4 3 9 5 5 5 7 12 14 14 13 12 11 11 12 11 12 13 13 13 11 10 8 10 9 7 8 8 8 9 11 12
9 9 2 3 4 3 3 5 6 4 4 9 8 13 7 3 4 8 8 7 7 6 4 5 13 13 13 13 12 11 10 11 11 10 10 11 11 10 8 7 8 8 7 7 8 9 10 11 10
11 7 2 2 2 2 4 3 8 9 10 5 5 3 4 11 8 12 4 11 8 6 7 7 14 15 14 12 12 9 10 10 11 10 9 9 9 8 9 7 7 8 8 7 8 9 9 10 10
2 1 3 2 4 2 4 8 12 11 7 6 12 8 5 3 12 7 10 14 10 7 7 9 14 16 16 13 11 12 10 9 11 10 9 8 8 7 9 8 6 8 8 8 9 9 8 9 9
1 1 2 4 3 4 8 13 9 10 5 10 4 6 5 7 5 10 12 11 8 6 8 8 12 14 15 15 13 12 12 10 10 10 10 9 7 6 7 7 8 8 7 8 9 9 8 8 7
2 1 3 4 5 6 7 11 11 7 10 13 11 11 4 4 8 11 11 11 9 11 11 8 12 13 14 15 12 11 11 11 9 9 9 7 7 7 7 8 8 9 9 9 8 8 7 6 4
4 2 2 6 7 6 8 4 7 15 13 8 18 10 6 8 10 9 9 8 10 10 10 9 9 11 13 13 12 12 11 11 11 9 9 9 8 7 7 7 9 8 9 10 9 8 7 6 4
3 3 3 5 9 2 11 9 10 15 14 18 14 7 11 17 15 12 11 11 10 9 8 8 6 6 6 6 13 11 11 12 9 9 10 9 8 7 9 7 7 8 9 9 9 8 8 5 4
2 2 3 5 6 6 14 11 14 10 15 11 12 7 16 18 15 13 10 9 8 7 8 8 8 6 5 6 7 11 13 12 10 9 10 6 3 2 4 7 8 10 9 8 9 8 6 5 4
2 2 7 7 6 10 13 16 17 9 14 5 6 13 18 16 15 17 17 13 12 11 9 9 7 7 7 6 5 5 5 4 4 4 4 4 5 3 4 5 9 11 11 10 9 9 8 5 0
7 6 4 4 4 5 10 17 16 15 13 12 21 23 18 15 13 15 17 17 17 15 10 12 11 10 8 6 4 3 2 3 3 6 5 4 3 2 3 2 2 3 10 3 6 5 3 3 2
6 11 13 7 7 7 9 9 10 17 9 17 23 26 21 16 14 12 15 15 14 13 14 12 11 8 10 4 5 4 4 4 4 4 5 4 2 3 4 3 4 4 2 4 3 3 4 4 4
8 7 13 11 6 8 6 7 9 12 13 22 20 22 20 15 13 11 12 15 13 15 12 11 10 9 7 6 5 5 5 5 5 4 5 4 4 4 3 3 4 4 3 3 3 3 3 3 3
6 8 10 15 8 5 5 2 8 5 23 23 25 21 19 18 16 15 15 15 16 15 13 14 12 9 8 7 7 7 5 5 5 5 5 6 5 4 4 4 4 4 4 3 3 4 4 4 4
10 4 7 3 5 3 5 4 3 16 23 25 23 21 20 20 18 18 16 14 16 13 14 12 13 9 10 8 8 7 4 4 3 3 6 7 6 5 5 4 4 4 4 3 2 2 2 2 2
2 5 2 7 6 2 10 8 12 12 20 21 22 20 21 21 21 18 17 16 15 12 13 11 9 10 8 7 6 5 4 4 3 3 1 3 5 7 6 4 4 4 4 3 3 2 2 3 3
5 3 5 3 8 6 5 5 23 6 17 20 19 19 19 18 19 18 18 20 17 15 13 14 12 12 10 9 6 5 5 4 4 4 3 4 5 5 4 4 4 5 4 3 3 3 3 2 3
6 4 4 3 5 11 7 8 18 17 18 20 19 19 19 18 20 18 18 21 19 16 15 16 11 12 10 5 4 4 3 2 3 4 3 5 4 5 5 4 4 4 3 2 3 3 2 3 3
6 4 6 3 7 3 7 10 15 17 12 18 17 18 19 19 16 14 12 18 19 14 16 15 14 12 9 4 4 3 4 3 3 3 5 6 5 5 5 3 3 3 4 4 4 3 3 2 2
6 5 4 3 7 2 10 8 12 16 14 22 21 20 19 18 12 14 14 15 17 17 13 12 16 14 11 8 4 3 3 2 2 1 4 6 5 6 5 5 4 4 3 4 4 3 2 1 2
6 9 9 8 8 6 4 3 5 7 4 14 17 18 17 18 17 16 16 15 16 16 16 14 16 15 11 9 5 3 3 2 2 5 6 4 6 6 6 6 4 4 3 4 3 3 4 1 1
6 16 13 12 5 5 6 5 7 1 3 7 14 13 17 17 17 17 18 13 18 17 15 15 15 15 11 10 9 6 5 4 4 6 6 4 6 6 5 5 5 5 3 4 3 4 3 3 1
12 10 13 16 8 4 5 6 6 6 7 10 16 14 19 20 19 19 21 19 19 17 16 14 15 15 12 12 11 7 5 4 3 3 6 5 5 6 6 5 5 4 3 4 4 4 4 2 2
3 5 7 5 4 5 7 5 5 8 19 19 13 10 11 13 17 20 21 16 16 16 16 15 16 16 14 13 11 11 10 7 5 4 5 4 3 3 5 5 5 5 4 4 4 4 5 4 4
8 8 4 7 7 6 4 2 13 18 21 22 24 19 13 5 18 18 19 16 16 19 18 16 17 16 14 14 14 12 12 10 9 8 6 5 4 3 5 4 4 4 4 5 5 5 5 4 4
5 9 7 2 1 8 4 3 9 10 10 15 13 2 7 9 13 20 21 19 18 19 20 18 17 16 16 14 15 12 10 7 7 8 5 6 6 5 6 5 6 6 6 5 5 3 4 5 4
4 1 7 8 3 4 4 8 10 8 3 2 3 2 4 6 8 19 21 20 18 19 21 21 19 16 16 16 12 12 11 9 9 10 7 6 5 4 6 7 7 6 6 6 6 4 4 5 4
3 3 3 5 3 1 7 5 6 2 10 5 9 7 8 6 8 8 15 19 17 19 19 19 19 20 20 16 14 12 13 11 9 9 9 7 6 7 8 7 7 7 6 6 6 4 4 6 3
9 9 6 6 5 6 2 7 8 12 7 9 4 12 9 10 6 11 17 17 18 17 19 19 18 18 16 16 14 14 12 12 10 10 8 8 8 10 10 9 7 7 7 6 7 6 6 7 4
3 1 4 6 7 1 4 8 5 16 8 11 9 15 12 21 27 12 17 19 18 18 19 20 18 18 18 18 16 15 14 12 11 10 9 9 10 10 11 10 8 7 6 6 7 7 6 7 5
Wind_Direction
168 187 207 276 345 64 15 52 118 129 150 74 145 157 154 73 155 170 134 151 168 154 163 140 145 137 136 130 131 121 115 113 113 113 114 109 107 112 112 111 108 109 106 107 109 110 108 109 115
166 172 233 273 79 71 13 144 152 185 115 113 99 125 127 121 121 116 119 178 176 165 152 142 151 146 144 142 136 129 131 128 127 128 122 119 114 115 120 115 106 109 121 117 125 118 117 113 112
154 199 271 240 111 107 144 163 126 122 153 170 118 72 102 133 122 146 146 165 175 177 151 160 155 151 152 151 140 132 125 132 137 140 134 127 124 129 133 119 109 116 128 127 125 131 128 121 113
156 311 260 58 124 94 124 157 147 156 186 195 116 77 49 28 143 169 152 162 167 168 141 154 156 155 157 153 150 138 131 137 137 145 138 140 133 143 144 134 129 135 137 140 131 137 140 134 118
358 182 269 67 69 99 142 156 172 163 118 108 102 89 70 134 118 138 152 158 161 156 146 156 150 152 153 149 152 151 145 147 146 149 145 148 147 161 144 147 149 153 145 145 140 142 146 140 136
258 289 64 133 135 136 153 163 187 162 106 108 99 103 166 209 162 172 161 167 173 154 154 155 158 162 156 149 155 156 151 153 160 161 153 149 156 158 158 157 152 156 156 158 152 146 151 155 151
126 60 292 115 154 178 184 204 172 146 139 134 131 119 166 173 188 172 168 165 158 157 149 160 166 170 161 159 162 157 163 162 173 169 155 161 170 158 166 172 163 169 170 158 162 155 166 162 136
91 91 297 142 193 185 173 174 176 171 154 136 141 168 175 195 184 164 166 156 154 154 158 154 170 159 162 162 171 160 168 169 166 171 172 174 166 173 180 176 193 182 181 170 169 166 173 167 139
315 64 225 171 152 137 154 189 172 184 138 186 187 143 169 175 157 169 164 152 152 157 158 176 171 171 157 168 176 177 179 166 170 186 179 161 117 168 200 184 194 191 186 181 170 172 182 181 160
214 337 233 181 157 149 181 159 173 147 165 171 111 118 159 162 160 160 161 161 162 169 179 180 180 173 170 179 182 181 191 163 179 189 146 182 163 166 194 192 213 198 195 190 184 176 185 189 162
341 344 295 30 129 149 139 154 173 153 187 172 150 152 167 168 169 156 164 168 175 178 182 187 181 182 181 180 167 185 180 185 204 200 166 184 139 195 210 188 196 193 204 209 189 185 171 175 198
156 308 18 317 342 130 167 170 165 172 191 160 156 159 162 171 173 163 163 176 171 173 191 188 188 181 183 155 175 182 183 195 195 215 173 157 227 223 219 162 194 193 194 208 204 192 200 211 200
87 13 320 304 84 357 187 196 176 199 143 142 146 156 164 170 173 169 171 178 171 180 180 182 169 182 166 177 183 185 196 202 193 198 190 161 214 225 200 165 197 207 184 203 231 213 217 197 228
163 151 263 300 350 335 326 228 129 136 138 143 152 163 167 175 182 175 177 175 180 187 170 176 175 174 158 186 185 200 184 208 191 200 188 148 189 179 189 183 196 181 168 185 211 186 163 168 174
138 132 319 320 317 318 356 299 100 148 148 153 160 166 171 183 187 187 189 185 185 193 178 179 180 168 171 180 193 192 194 184 180 169 151 150 153 175 182 185 189 194 170 176 171 144 140 187 208
72 109 103 272 294 275 79 344 346 157 158 163 166 172 178 186 192 194 194 192 195 187 185 180 180 172 171 170 182 181 186 163 178 140 109 204 163 181 185 186 198 178 159 170 185 182 206 224 223
17 118 231 297 235 252 101 81 267 239 178 170 176 180 184 193 198 202 197 194 193 189 181 180 182 177 174 183 172 154 149 147 163 167 177 232 213 179 179 185 190 167 161 190 199 203 189 200 242
207 213 209 6 276 191 163 191 209 247 191 182 179 184 191 195 201 198 181 187 185 184 179 174 175 174 174 171 115 115 134 127 167 178 221 227 225 184 176 181 175 170 151 192 222 207 217 212 224
181 181 119 246 253 211 245 225 202 237 182 191 187 188 191 197 198 188 171 175 177 167 172 175 171 173 163 158 156 151 173 184 244 220 233 228 204 172 177 170 172 184 184 209 210 184 192 240 225
170 139 188 241 261 184 286 271 221 205 190 187 188 193 193 191 185 185 175 171 173 166 165 163 178 172 178 172 173 141 147 177 162 79 231 219 173 175 173 168 171 197 212 222 194 166 133 234 195
214 187 191 216 209 253 169 355 279 205 184 198 201 191 193 191 187 178 179 173 174 173 176 164 176 173 177 168 123 80 61 82 105 142 221 230 177 159 176 171 166 196 187 173 174 150 146 180 310
219 223 212 254 157 228 123 236 261 146 216 187 208 194 195 197 194 179 177 167 178 179 178 164 166 172 174 161 165 158 168 166 201 170 195 185 160 178 165 155 167 177 171 161 159 164 152 132 190
226 246 229 240 197 117 342 87 264 85 239 224 224 198 196 197 182 183 180 175 176 170 173 171 167 173 172 174 173 172 172 170 160 141 150 184 186 175 185 175 176 156 166 154 148 127 119 109 116
242 27 23 51 73 26 253 122 257 196 209 219 219 213 203 201 189 187 181 173 172 170 171 173 170 180 176 176 174 180 178 171 155 166 169 183 189 195 202 178 162 166 146 126 122 117 108 101 91
74 57 357 4 13 223 4 115 237 217 210 205 216 225 204 193 185 183 176 171 170 170 172 175 177 181 179 181 181 182 180 176 178 180 180 169 176 186 198 159 148 147 134 128 124 121 115 104 93
199 138 149 197 245 266 321 305 273 294 219 195 227 158 180 198 202 181 181 175 175 174 173 177 181 184 179 181 185 184 173 178 181 183 179 185 187 183 173 157 159 148 139 127 118 116 114 110 100
249 148 189 118 39 49 282 309 320 27 332 235 257 206 160 243 200 188 182 178 177 175 181 181 180 183 184 189 181 185 179 176 185 189 182 185 164 155 155 159 155 148 142 130 126 125 113 120 111
0 184 45 9 134 260 294 295 244 228 218 220 222 232 158 186 181 185 188 183 182 181 183 184 183 181 186 187 188 185 185 187 184 186 189 175 174 163 164 162 140 130 124 130 133 115 123 119 105
350 21 24 112 117 162 206 297 230 250 209 172 220 151 160 181 197 190 188 193 187 182 181 185 185 185 188 190 187 186 186 186 180 189 190 172 163 166 162 151 137 144 145 148 133 131 130 117 118
159 56 109 95 305 27 150 270 355 330 168 173 184 144 159 155 210 202 197 185 186 184 186 186 187 186 190 190 186 187 186 186 185 189 177 157 163 162 153 150 148 144 144 146 140 143 140 139 140